Regional Weather Roundup
Issued by NWS

Home | Current Version | Previous Version | Graphics & Text | Print | Product List | Glossary On
Versions: 1 2 3 4 5 6 7 8 9 10 11 12 13 14 15 16 17 18 19 20 21 22 23 24 25 26 27 28 29 30 31 32 33 34 35 36 37 38 39 40 41 42 43 44 45 46 47
000
ASUS45 KCYS 280810
RWRWY

WYOMING REGIONAL WEATHER ROUNDUP
NATIONAL WEATHER SERVICE CHEYENNE WY
200 AM MDT FRI AUG 28 2015

NOTE:  "FAIR" INDICATES FEW OR NO CLOUDS BELOW 12,000 FEET
WITH NO SIGNIFICANT WEATHER AND/OR OBSTRUCTIONS TO VISIBILITY.

WYZ001-280900-
YELLOWSTONE NATIONAL PARK

CITY           SKY/WX    TMP DP  RH WIND       PRES   REMARKS
LK YELLOWSTONE   N/A     39  38  96 W3        30.42S
W YELLOWSTONE  NOT AVBL

$$
WYZ002>013-054>058-071-098>099-280900-
NORTHERN WYOMING

CITY           SKY/WX    TMP DP  RH WIND       PRES   REMARKS
JACKSON        FAIR      48  45  87 N5        30.34R
CODY           FAIR      54  45  71 W3        30.18S
GREYBULL       FAIR      61  52  72 CALM      30.14S HAZE
WORLAND        FAIR      59  53  80 CALM      30.15S HAZE
SHERIDAN       FAIR      67  43  41 CALM      30.06S
BUFFALO        FAIR      64  40  41 W6        30.13F
GILLETTE       FAIR      66  45  46 SW14      30.08F
HULETT         FAIR      59  52  77 S7        30.07S
NEWCASTLE      FAIR      59  48  67 N7        30.08S

$$
WYZ014>020-022>026-101>103-280900-
CENTRAL WYOMING

CITY           SKY/WX    TMP DP  RH WIND       PRES   REMARKS
BIG PINEY      FAIR      47  39  74 N10       30.37S
PINEDALE       FAIR      45  43  93 W5        30.39R
DUBOIS         FAIR      45  41  87 W14       30.36F
LANDER         FAIR      55  46  71 NW8       30.23F
RIVERTON       FAIR      56  51  84 CALM      30.25S
CASPER         FAIR      60  45  57 SW12      30.20F
DOUGLAS        FAIR      66  44  45 NW10      30.16S

$$
WYZ021-027>030-104>119-280900-
SOUTHERN WYOMING

CITY           SKY/WX    TMP DP  RH WIND       PRES   REMARKS
EVANSTON       FAIR      54  39  57 SE6       30.38S
KEMMERER       FAIR      45  37  76 N10       30.40S
FORT BRIDGER   SUNNY     52  37  58 W6        30.40F
ROCK SPRINGS   FAIR      55  43  63 S10       30.36F
DIXON          FAIR      51  46  82 E5        30.37F
RAWLINS        FAIR      53  44  71 S5        30.32F
SARATOGA       FAIR      50  46  87 W6        30.37F
LARAMIE        FAIR      52  47  83 NW9       30.33S
CHEYENNE       CLOUDY    58  54  86 CALM      30.25S
TORRINGTON     FAIR      62  56  80 NW6       30.08R
PINE BLUFFS    PTSUNNY   63  52  67 W20       30.18R

$$



USA.gov is the U.S. government's official web portal to all federal, state and local government web resources and services.